TimeAEST,TemperatureF,Dew PointF,Humidity,Sea Level PressureIn,VisibilityMPH,Wind Direction,Wind SpeedMPH,Gust SpeedMPH,PrecipitationIn,Events,Conditions,WindDirDegrees,DateUTC
12:00 AM,79,76,90,29.48,6,SE,16.1,,,,,130,2013-01-22 14:00:00
12:00 AM,78.8,77.0,94,29.47,6.2,SE,16.1,-,N/A,,Mostly Cloudy,130,2013-01-22 14:00:00
12:30 AM,78.8,77.0,94,29.44,3.7,ESE,12.7,-,N/A,Rain,Light Rain,120,2013-01-22 14:30:00
1:00 AM,78,76,93,29.44,,SSE,13.8,,,,,160,2013-01-22 15:00:00
1:00 AM,78.8,77.0,94,29.42,5.0,SSE,13.8,-,N/A,Rain,Light Rain,160,2013-01-22 15:00:00
1:30 AM,78.8,77.0,94,29.42,4.3,ESE,17.3,-,N/A,Rain,Light Rain,120,2013-01-22 15:30:00
2:00 AM,78.8,77.0,94,29.39,3.7,SE,16.1,-,N/A,Rain,Light Rain,130,2013-01-22 16:00:00
2:30 AM,78.8,77.0,94,29.39,6.2,SE,15.0,-,N/A,,Mostly Cloudy,140,2013-01-22 16:30:00
2:53 AM,78.8,77.0,94,29.39,2.5,SE,13.8,-,N/A,Rain,Rain,140,2013-01-22 16:53:00
3:00 AM,78,77,96,29.38,2,SE,15.0,,,,Overcast,130,2013-01-22 17:00:00
3:00 AM,78.8,77.0,94,29.39,2.5,SE,15.0,-,N/A,Rain,Rain,130,2013-01-22 17:00:00
3:30 AM,78.8,77.0,94,29.36,5.6,SE,12.7,-,N/A,Rain,Light Rain,140,2013-01-22 17:30:00
4:00 AM,78,76,90,29.37,,ESE,18.4,,,,,110,2013-01-22 18:00:00
4:00 AM,78.8,75.2,89,29.36,6.2,ESE,18.4,-,N/A,,Mostly Cloudy,110,2013-01-22 18:00:00
4:14 AM,78.8,75.2,89,29.36,2.5,ESE,16.1,-,N/A,Rain,Rain,120,2013-01-22 18:14:00
4:30 AM,78.8,77.0,94,29.36,2.5,SE,18.4,-,N/A,Rain,Rain,130,2013-01-22 18:30:00
5:00 AM,78.8,77.0,94,29.36,2.5,ENE,10.4,-,N/A,Rain,Light Rain,70,2013-01-22 19:00:00
5:17 AM,78.8,77.0,94,29.36,5.6,ENE,13.8,-,N/A,,Mostly Cloudy,70,2013-01-22 19:17:00
5:30 AM,78.8,77.0,94,29.36,6.2,East,9.2,-,N/A,,Mostly Cloudy,90,2013-01-22 19:30:00
5:39 AM,78.8,77.0,94,29.36,1.9,East,9.2,-,N/A,Rain,Rain Showers,90,2013-01-22 19:39:00
6:00 AM,78,77,95,29.38,4,ESE,10.4,,,,Overcast,110,2013-01-22 20:00:00
6:00 AM,78.8,77.0,94,29.36,6.2,ESE,10.4,-,N/A,,Mostly Cloudy,110,2013-01-22 20:00:00
6:30 AM,80.6,77.0,89,29.39,3.1,East,10.4,-,N/A,Rain,Rain Showers,100,2013-01-22 20:30:00
7:00 AM,80,78,91,29.40,,East,10.4,,,,,80,2013-01-22 21:00:00
7:00 AM,80.6,78.8,94,29.39,2.5,East,10.4,-,N/A,Rain,Light Rain,80,2013-01-22 21:00:00
7:20 AM,80.6,77.0,89,29.39,3.7,ESE,11.5,-,N/A,Rain,Light Rain,110,2013-01-22 21:20:00
8:00 AM,80.6,78.8,94,29.39,3.1,ESE,15.0,26.5,N/A,Rain,Light Rain,110,2013-01-22 22:00:00
8:30 AM,80.6,78.8,94,29.36,2.5,East,15.0,-,N/A,Rain,Rain,100,2013-01-22 22:30:00
8:37 AM,78.8,78.8,100,29.39,1.2,East,17.3,28.8,N/A,Rain,Rain,100,2013-01-22 22:37:00
9:00 AM,80,79,94,29.38,2,East,16.1,,,Rain,Rain,90,2013-01-22 23:00:00
9:00 AM,80.6,78.8,94,29.36,2.5,East,16.1,-,N/A,Rain,Rain,90,2013-01-22 23:00:00
9:30 AM,80.6,78.8,94,29.36,3.7,ENE,13.8,-,N/A,Rain,Light Rain,60,2013-01-22 23:30:00
10:00 AM,82,78,86,29.39,,NE,17.3,,,,,40,2013-01-23 00:00:00
10:00 AM,82.4,78.8,89,29.39,5.0,NE,17.3,-,N/A,,Mostly Cloudy,40,2013-01-23 00:00:00
10:30 AM,82.4,78.8,89,29.39,5.0,NNE,15.0,-,N/A,,Mostly Cloudy,30,2013-01-23 00:30:00
11:00 AM,84.2,78.8,84,29.39,3.7,NNE,13.8,-,N/A,Rain,Light Rain,30,2013-01-23 01:00:00
11:30 AM,82.4,78.8,89,29.36,3.7,NNE,16.1,-,N/A,Rain,Light Rain,30,2013-01-23 01:30:00
12:00 PM,81,78,87,29.37,3,NNE,17.3,,,,Overcast,20,2013-01-23 02:00:00
12:00 PM,80.6,77.0,89,29.36,3.1,NNE,17.3,-,N/A,,Mostly Cloudy,20,2013-01-23 02:00:00
12:15 PM,80.6,78.8,94,29.36,2.5,NNE,18.4,-,N/A,Rain,Light Rain,20,2013-01-23 02:15:00
12:30 PM,82.4,78.8,89,29.36,4.3,NNE,13.8,25.3,N/A,Rain,Light Rain,30,2013-01-23 02:30:00
1:00 PM,82,78,85,29.36,,NNE,13.8,,,,,20,2013-01-23 03:00:00
1:00 PM,82.4,78.8,89,29.36,4.3,NNE,13.8,-,N/A,Rain,Light Rain,20,2013-01-23 03:00:00
1:49 PM,82.4,77.0,84,29.33,2.5,NNE,12.7,-,N/A,Rain,Rain,30,2013-01-23 03:49:00
2:00 PM,80.6,78.8,94,29.30,1.9,NE,11.5,-,N/A,Rain,Rain,50,2013-01-23 04:00:00
2:30 PM,80.6,78.8,94,29.30,6.2,North,11.5,-,N/A,Rain,Light Rain,10,2013-01-23 04:30:00
3:00 PM,82,78,85,29.31,12,NNE,11.5,,,Rain,Light Drizzle,30,2013-01-23 05:00:00
3:00 PM,82.4,78.8,89,29.30,6.2,NNE,11.5,-,N/A,,Mostly Cloudy,30,2013-01-23 05:00:00
3:30 PM,82.4,77.0,84,29.30,6.2,NNE,12.7,-,N/A,,Mostly Cloudy,30,2013-01-23 05:30:00
3:55 PM,82.4,78.8,89,29.27,4.3,NNE,13.8,-,N/A,Rain,Light Rain,20,2013-01-23 05:55:00
3:58 PM,82.4,77.0,84,29.27,2.5,NNE,12.7,-,N/A,Rain,Light Rain Showers,20,2013-01-23 05:58:00
4:00 PM,80,78,91,29.29,,NNE,12.7,,,,,20,2013-01-23 06:00:00
4:00 PM,80.6,77.0,89,29.27,3.7,NNE,12.7,-,N/A,Rain,Light Rain Showers,20,2013-01-23 06:00:00
4:15 PM,80.6,78.8,94,29.27,6.2,NNE,13.8,-,N/A,,Mostly Cloudy,30,2013-01-23 06:15:00
4:30 PM,82.4,78.8,89,29.27,6.2,NE,15.0,-,N/A,,Mostly Cloudy,40,2013-01-23 06:30:00
5:00 PM,80.6,77.0,89,29.27,6.2,NNE,13.8,-,N/A,,Mostly Cloudy,30,2013-01-23 07:00:00
5:22 PM,80.6,78.8,94,29.27,3.7,NE,11.5,-,N/A,Rain,Light Rain Showers,50,2013-01-23 07:22:00
5:30 PM,80.6,77.0,89,29.27,6.2,NNE,13.8,-,N/A,,Mostly Cloudy,20,2013-01-23 07:30:00
5:37 PM,80.6,77.0,89,29.27,6.2,North,15.0,-,N/A,,Scattered Clouds,10,2013-01-23 07:37:00
6:00 PM,81,77,83,29.29,9,North,16.1,,,Rain,Light Rain Showers,0,2013-01-23 08:00:00
6:00 PM,80.6,77.0,89,29.30,6.2,North,16.1,-,N/A,,Mostly Cloudy,360,2013-01-23 08:00:00
6:06 PM,82.4,75.2,79,29.30,6.2,North,17.3,29.9,N/A,,Mostly Cloudy,360,2013-01-23 08:06:00
6:30 PM,82.4,77.0,84,29.30,6.2,North,17.3,-,N/A,,Mostly Cloudy,10,2013-01-23 08:30:00
7:00 PM,81,77,83,29.32,,North,20.7,,,,,10,2013-01-23 09:00:00
7:00 PM,80.6,77.0,89,29.30,6.2,North,20.7,-,N/A,,Mostly Cloudy,10,2013-01-23 09:00:00
7:30 PM,80.6,77.0,89,29.33,4.3,North,17.3,-,N/A,Rain,Light Rain Showers,360,2013-01-23 09:30:00
7:53 PM,80.6,77.0,89,29.33,3.7,North,17.3,28.8,N/A,Rain,Light Rain Showers,360,2013-01-23 09:53:00
8:00 PM,80.6,77.0,89,29.33,3.7,North,19.6,-,N/A,Rain,Light Rain Showers,10,2013-01-23 10:00:00
8:30 PM,78.8,77.0,94,29.33,1.9,North,19.6,-,N/A,Rain,Light Rain Showers,360,2013-01-23 10:30:00
9:00 PM,78,77,97,29.34,2,North,18.4,,,Rain,Light Rain Showers,0,2013-01-23 11:00:00
9:00 PM,78.8,77.0,94,29.33,1.9,North,18.4,-,N/A,Rain,Light Rain Showers,350,2013-01-23 11:00:00
9:05 PM,78.8,77.0,94,29.33,1.9,North,19.6,32.2,N/A,Rain,Light Rain Showers,360,2013-01-23 11:05:00
9:30 PM,78.8,77.0,94,29.33,2.5,North,21.9,-,N/A,Rain,Light Rain Showers,360,2013-01-23 11:30:00
10:00 PM,78,77,94,29.35,,North,20.7,,,,,0,2013-01-23 12:00:00
10:00 PM,78.8,77.0,94,29.33,3.1,North,20.7,-,N/A,Rain,Light Rain,360,2013-01-23 12:00:00
10:30 PM,78.8,77.0,94,29.33,3.7,North,19.6,-,N/A,,Mostly Cloudy,360,2013-01-23 12:30:00
10:35 PM,78.8,77.0,94,29.33,5.6,North,20.7,33.4,N/A,,Mostly Cloudy,360,2013-01-23 12:35:00
11:00 PM,78.8,77.0,94,29.33,3.1,North,26.5,-,N/A,Rain,Light Rain Showers,360,2013-01-23 13:00:00
11:08 PM,78.8,77.0,94,29.33,3.7,North,24.2,36.8,N/A,Rain,Light Rain Showers,350,2013-01-23 13:08:00
11:30 PM,80.6,77.0,89,29.30,6.2,North,24.2,35.7,N/A,,Mostly Cloudy,360,2013-01-23 13:30:00